Location: Newark
(44.3681°N, 100.3364°W)
Time: 00:26:30
(UTC+00:00)

Vanguard 1 - Pass Details

Date: 23 February 2020
Orbit: 649 x 3834 km, 34.2° (Epoch: 28 March)

Event Time Altitude Azimuth Distance (km) Brightness Sun altitude
Rises 15:08:14 0° 241° (WSW) 7,970 14.4 15.5°
Reaches altitude 10° 15:14:02 10° 237° (WSW) 6,869 14.2 16.4°
Maximum altitude 15:34:50 54° 169° (S) 3,365 13.5 19.5°
Drops below altitude 10° 15:47:41 10° 97° (E) 4,452 14.5 21.3°
Sets 15:50:32 0° 93° (E) 5,110 14.6 21.7°
